| time (UTC) | temp C | wind direction | speed KPH | gust KPH | rain 1hr cm | rain 24hr cm | rain mn cm | humidity % | barometer mb |
| 20260507203314 | 14 | 270 | 16.1 | 24.1 | 0.00 | 0.00 | 0.00 | 72 | 998.5 |
| 20260507202308 | 14 | 315 | 17.7 | 22.5 | 0.00 | 0.00 | 0.00 | 72 | 998.5 |
| 20260507201301 | 14 | 270 | 14.5 | 25.7 | 0.00 | 0.00 | 0.00 | 72 | 998.1 |
| 20260507200255 | 14 | 23 | 12.9 | 35.4 | 0.00 | 0.00 | 0.00 | 71 | 997.3 |
| 20260507195249 | 15 | 23 | 17.7 | 33.8 | 0.00 | 0.00 | 0.00 | 72 | 997.0 |
| 20260507194243 | 15 | 315 | 14.5 | 33.8 | 0.00 | 0.00 | 0.00 | 71 | 997.5 |
| 20260507193237 | 15 | 0 | 12.9 | 22.5 | 0.00 | 0.00 | 0.00 | 72 | 996.8 |
| 20260507192230 | 15 | 225 | 12.9 | 33.8 | 0.00 | 0.00 | 0.00 | 72 | 997.4 |
| 20260507191225 | 15 | 0 | 11.3 | 29.0 | 0.00 | 0.00 | 0.00 | 72 | 998.1 |
| 20260507190219 | 15 | 270 | 22.5 | 37.0 | 0.00 | 0.00 | 0.00 | 72 | 998.6 |
| 20260507185212 | 15 | 270 | 12.9 | 25.7 | 0.00 | 0.00 | 0.00 | 73 | 998.7 |
| 20260507184206 | 15 | 270 | 17.7 | 32.2 | 0.00 | 0.00 | 0.00 | 72 | 998.8 |
| 20260507183200 | 15 | 270 | 14.5 | 25.7 | 0.00 | 0.00 | 0.00 | 73 | 999.4 |
| 20260507182154 | 15 | 270 | 9.7 | 33.8 | 0.00 | 0.00 | 0.00 | 73 | 1000.4 |
| 20260507181148 | 15 | 315 | 9.7 | 20.9 | 0.00 | 0.00 | 0.00 | 76 | 999.8 |
| 20260507180142 | 15 | 315 | 11.3 | 20.9 | 0.00 | 0.00 | 0.00 | 76 | 999.6 |
| 20260507175137 | 15 | 270 | 12.9 | 27.4 | 0.00 | 0.00 | 0.00 | 75 | 999.2 |
| 20260507174129 | 15 | 315 | 11.3 | 17.7 | 0.00 | 0.00 | 0.00 | 77 | 998.4 |
| 20260507173123 | 14 | 270 | 11.3 | 22.5 | 0.00 | 0.00 | 0.00 | 77 | 998.0 |
| 20260507172119 | 14 | 270 | 11.3 | 19.3 | 0.00 | 0.00 | 0.00 | 77 | 998.8 |
| 20260507171121 | 15 | 270 | 11.3 | 25.7 | 0.00 | 0.00 | 0.00 | 77 | 999.0 |
| 20260507170115 | 15 | 270 | 12.9 | 27.4 | 0.00 | 0.00 | 0.00 | 76 | 999.6 |
| 20260507165057 | 15 | 293 | 11.3 | 33.8 | 0.00 | 0.00 | 0.00 | 76 | 1000.2 |
| 20260507164053 | 15 | 270 | 24.1 | 33.8 | 0.00 | 0.00 | 0.00 | 76 | 1000.3 |
| 20260507163046 | 15 | 270 | 11.3 | 25.7 | 0.00 | 0.00 | 0.00 | 80 | 999.6 |
| 20260507162040 | 15 | 315 | 8.0 | 17.7 | 0.00 | 0.00 | 0.00 | 81 | 998.9 |
| 20260507161034 | 15 | 0 | 11.3 | 22.5 | 0.00 | 0.00 | 0.00 | 82 | 998.8 |
| 20260507160036 | 15 | 270 | 12.9 | 24.1 | 0.00 | 0.00 | 0.00 | 82 | 998.9 |
| 20260507155029 | 15 | 315 | 17.7 | 24.1 | 0.00 | 0.00 | 0.00 | 82 | 999.1 |
| 20260507154023 | 16 | 0 | 17.7 | 24.1 | 0.00 | 0.00 | 0.00 | 82 | 998.9 |
| 20260507153009 | 16 | 0 | 9.7 | 24.1 | 0.00 | 0.00 | 0.00 | 84 | 998.5 |
| 20260507152002 | 16 | 0 | 17.7 | 24.1 | 0.00 | 0.00 | 0.00 | 85 | 998.8 |
| 20260507150958 | 16 | 0 | 16.1 | 24.1 | 0.00 | 0.00 | 0.00 | 87 | 999.5 |
| 20260507145950 | 16 | 270 | 12.9 | 25.7 | 0.00 | 0.00 | 0.00 | 88 | 1000.0 |
| 20260507144944 | 16 | 0 | 9.7 | 17.7 | 0.00 | 0.00 | 0.00 | 88 | 999.8 |
| 20260507143938 | 16 | 270 | 6.4 | 14.5 | 0.00 | 0.00 | 0.00 | 88 | 999.3 |
| 20260507142931 | 16 | 315 | 6.4 | 17.7 | 0.00 | 0.00 | 0.00 | 89 | 999.1 |
| 20260507141925 | 16 | 0 | 6.4 | 17.7 | 0.00 | 0.00 | 0.00 | 89 | 998.4 |
| 20260507140919 | 16 | 0 | 16.1 | 22.5 | 0.00 | 0.00 | 0.00 | 89 | 998.9 |
| 20260507135913 | 16 | 0 | 12.9 | 22.5 | 0.00 | 0.00 | 0.00 | 89 | 999.3 |
| 20260507134906 | 16 | 270 | 6.4 | 17.7 | 0.00 | 0.00 | 0.00 | 89 | 999.1 |
| 20260507133901 | 16 | 0 | 6.4 | 14.5 | 0.00 | 0.00 | 0.00 | 88 | 999.3 |
| 20260507132906 | 16 | 23 | 4.8 | 9.7 | 0.00 | 0.00 | 0.00 | 89 | 1000.2 |
| 20260507131847 | 16 | 225 | 8.0 | 12.9 | 0.00 | 0.00 | 0.00 | 89 | 1001.2 |
| 20260507130843 | 16 | 270 | 3.2 | 6.4 | 0.00 | 0.00 | 0.00 | 89 | 1001.1 |
| 20260507125838 | 16 | 270 | 3.2 | 9.7 | 0.00 | 0.00 | 0.00 | 89 | 999.8 |
| 20260507124830 | 16 | 0 | 8.0 | 19.3 | 0.00 | 0.00 | 0.00 | 90 | 999.2 |
| 20260507123826 | 16 | 23 | 8.0 | 19.3 | 0.00 | 0.00 | 0.00 | 90 | 999.0 |
| 20260507122824 | 16 | 293 | 9.7 | 20.9 | 0.00 | 0.00 | 0.00 | 90 | 999.3 |
| 20260507121811 | 15 | 23 | 17.7 | 29.0 | 0.00 | 0.00 | 0.00 | 91 | 999.1 |
| 20260507120805 | 15 | 293 | 14.5 | 24.1 | 0.00 | 0.00 | 0.00 | 91 | 998.4 |
| 20260507115759 | 15 | 0 | 20.9 | 27.4 | 0.00 | 0.00 | 0.00 | 91 | 997.3 |
| 20260507114752 | 16 | 270 | 8.0 | 24.1 | 0.00 | 0.00 | 0.00 | 90 | 998.7 |
| 20260507113746 | 16 | 0 | 9.7 | 24.1 | 0.00 | 0.00 | 0.00 | 90 | 998.9 |
| 20260507112740 | 16 | 270 | 6.4 | 24.1 | 0.00 | 0.00 | 0.00 | 92 | 998.8 |
| 20260507111735 | 16 | 0 | 17.7 | 24.1 | 0.00 | 0.00 | 0.00 | 94 | 998.0 |
| 20260507110729 | 16 | 270 | 12.9 | 19.3 | 0.00 | 0.00 | 0.00 | 96 | 997.4 |
| 20260507105722 | 16 | 0 | 9.7 | 30.6 | 0.00 | 0.00 | 0.00 | 97 | 997.7 |
| 20260507104719 | 16 | 0 | 19.3 | 29.0 | 0.00 | 0.00 | 0.00 | 98 | 997.0 |
| 20260507103710 | 16 | 315 | 9.7 | 16.1 | 0.00 | 0.00 | 0.00 | 98 | 997.9 |
| 20260507102704 | 16 | 270 | 4.8 | 12.9 | 0.00 | 0.00 | 0.00 | 98 | 998.4 |
| 20260507101657 | 16 | 315 | 3.2 | 8.0 | 0.00 | 0.00 | 0.00 | 98 | 998.3 |
| 20260507100650 | 16 | 0 | 4.8 | 12.9 | 0.00 | 0.00 | 0.00 | 98 | 996.7 |
| 20260507095644 | 17 | 0 | 6.4 | 14.5 | 0.00 | 0.00 | 0.00 | 97 | 997.8 |
| 20260507094649 | 17 | 270 | 6.4 | 17.7 | 0.00 | 0.00 | 0.00 | 97 | 998.1 |
| 20260507093632 | 17 | 315 | 11.3 | 17.7 | 0.00 | 0.00 | 0.00 | 97 | 997.2 |
| 20260507092625 | 17 | 23 | 9.7 | 12.9 | 0.00 | 0.00 | 0.00 | 97 | 997.0 |
| 20260507091620 | 17 | 315 | 3.2 | 12.9 | 0.00 | 0.00 | 0.00 | 97 | 997.8 |
| 20260507090625 | 17 | 270 | 9.7 | 14.5 | 0.00 | 0.00 | 0.00 | 97 | 997.0 |
| 20260507085608 | 17 | 270 | 6.4 | 19.3 | 0.00 | 0.00 | 0.00 | 97 | 997.3 |
| 20260507084601 | 17 | 0 | 12.9 | 20.9 | 0.00 | 0.00 | 0.00 | 97 | 997.6 |
| 20260507083554 | 17 | 0 | 12.9 | 20.9 | 0.00 | 0.00 | 0.00 | 97 | 998.0 |
| 20260507082549 | 17 | 270 | 4.8 | 8.0 | 0.00 | 0.00 | 0.00 | 97 | 997.2 |
| 20260507081542 | 17 | 23 | 3.2 | 6.4 | 0.00 | 0.00 | 0.00 | 97 | 996.8 |
| 20260507080536 | 17 | 23 | 3.2 | 4.8 | 0.00 | 0.00 | 0.00 | 97 | 997.0 |
| 20260507075531 | 17 | 23 | 3.2 | 6.4 | 0.00 | 0.00 | 0.00 | 97 | 996.7 |
| 20260507074524 | 17 | 23 | 3.2 | 4.8 | 0.00 | 0.00 | 0.00 | 97 | 997.4 |
| 20260507073518 | 17 | 180 | 0.0 | 6.4 | 0.00 | 0.00 | 0.00 | 97 | 997.8 |
| 20260507072512 | 17 | 180 | 1.6 | 8.0 | 0.00 | 0.00 | 0.00 | 97 | 998.1 |
| 20260507071505 | 17 | 0 | 3.2 | 6.4 | 0.00 | 0.00 | 0.00 | 97 | 997.4 |
| 20260507070459 | 17 | 180 | 1.6 | 8.0 | 0.00 | 0.00 | 0.00 | 97 | 998.3 |
| 20260507065452 | 17 | 23 | 3.2 | 9.7 | 0.00 | 0.00 | 0.00 | 97 | 997.7 |
| 20260507064446 | 17 | 23 | 1.6 | 4.8 | 0.00 | 0.00 | 0.00 | 97 | 999.2 |
| 20260507063441 | 17 | 180 | 0.0 | 3.2 | 0.00 | 0.00 | 0.00 | 97 | 1000.1 |
| 20260507062435 | 17 | 23 | 0.0 | 3.2 | 0.00 | 0.00 | 0.00 | 97 | 1000.6 |
| 20260507061430 | 17 | 0 | 0.0 | 8.0 | 0.00 | 0.00 | 0.00 | 97 | 1000.5 |
| 20260507060446 | 17 | 0 | 3.2 | 4.8 | 0.00 | 0.00 | 0.00 | 96 | 1000.9 |
| 20260507060212 | 17 | 0 | 8.0 | 0.0 | 0.00 | 0.00 | 0.00 | 96 | 1000.0 |
| 20260507055419 | 17 | 0 | 8.0 | 14.5 | 0.00 | 0.00 | 0.00 | 96 | 1000.0 |
| 20260507054412 | 17 | 0 | 6.4 | 11.3 | 0.00 | 0.00 | 0.00 | 96 | 1000.3 |
| 20260507053405 | 17 | 0 | 3.2 | 8.0 | 0.00 | 0.00 | 0.00 | 96 | 1000.4 |
| 20260507052359 | 17 | 180 | 0.0 | 14.5 | 0.00 | 0.00 | 0.00 | 96 | 999.2 |
| 20260507051353 | 17 | 0 | 9.7 | 12.9 | 0.00 | 0.00 | 0.00 | 97 | 998.9 |
| 20260507050347 | 17 | 0 | 0.0 | 6.4 | 0.00 | 0.00 | 0.00 | 97 | 999.1 |
| 20260507045341 | 17 | 0 | 0.0 | 6.4 | 0.00 | 0.00 | 0.00 | 95 | 999.2 |
| 20260507044335 | 17 | 0 | 3.2 | 8.0 | 0.00 | 0.00 | 0.00 | 96 | 1000.3 |
| 20260507043328 | 17 | 23 | 0.0 | 11.3 | 0.00 | 0.00 | 0.00 | 95 | 998.8 |
| 20260507042323 | 17 | 23 | 6.4 | 12.9 | 0.00 | 0.00 | 0.00 | 95 | 999.4 |
| 20260507041320 | 17 | 270 | 4.8 | 25.7 | 0.00 | 0.00 | 0.00 | 96 | 998.6 |
| 20260507040310 | 18 | 0 | 17.7 | 37.0 | 0.00 | 0.00 | 0.00 | 95 | 998.9 |
| 20260507035306 | 18 | 0 | 1.6 | 20.9 | 0.00 | 0.00 | 0.00 | 93 | 999.8 |
| 20260507034257 | 19 | 225 | 17.7 | 37.0 | 0.00 | 0.00 | 0.00 | 91 | 998.8 |
| 20260507033251 | 20 | 23 | 17.7 | 29.0 | 0.00 | 0.00 | 0.00 | 88 | 998.7 |
| 20260507032244 | 20 | 0 | 11.3 | 27.4 | 0.00 | 0.00 | 0.00 | 86 | 997.9 |
| 20260507031239 | 21 | 0 | 19.3 | 33.8 | 0.00 | 0.00 | 0.00 | 78 | 998.1 |
| 20260507030232 | 23 | 0 | 20.9 | 48.3 | 0.00 | 0.00 | 0.00 | 72 | 998.9 |
| 20260507025226 | 25 | 270 | 8.0 | 17.7 | 0.00 | 0.00 | 0.03 | 75 | 998.2 |
| 20260507024222 | 25 | 0 | 8.0 | 17.7 | 0.00 | 0.00 | 0.03 | 75 | 997.7 |
| 20260507023214 | 25 | 0 | 8.0 | 17.7 | 0.00 | 0.00 | 0.03 | 75 | 997.8 |
| 20260507022219 | 25 | 315 | 14.5 | 25.7 | 0.00 | 0.00 | 0.03 | 75 | 997.7 |
| 20260507021202 | 25 | 0 | 12.9 | 22.5 | 0.00 | 0.00 | 0.03 | 75 | 997.4 |
| 20260507020155 | 25 | 0 | 8.0 | 24.1 | 0.00 | 0.00 | 0.03 | 75 | 998.3 |
| 20260507015148 | 25 | 0 | 6.4 | 25.7 | 0.00 | 0.00 | 0.03 | 75 | 998.3 |
| 20260507014142 | 25 | 0 | 11.3 | 25.7 | 0.00 | 0.00 | 0.03 | 76 | 998.6 |
| 20260507013136 | 25 | 0 | 12.9 | 27.4 | 0.00 | 0.00 | 0.03 | 76 | 998.3 |
| 20260507012131 | 25 | 0 | 9.7 | 25.7 | 0.00 | 0.00 | 0.03 | 77 | 998.5 |
| 20260507011126 | 25 | 0 | 9.7 | 30.6 | 0.00 | 0.00 | 0.03 | 77 | 998.3 |
| 20260507010121 | 25 | 0 | 9.7 | 43.5 | 0.00 | 0.00 | 0.03 | 77 | 997.9 |
| 20260507005112 | 25 | 0 | 14.5 | 27.4 | 0.00 | 0.00 | 0.03 | 78 | 998.1 |
| 20260507004106 | 25 | 315 | 6.4 | 24.1 | 0.00 | 0.00 | 0.03 | 78 | 998.6 |
| 20260507003100 | 25 | 0 | 11.3 | 22.5 | 0.00 | 0.00 | 0.03 | 79 | 998.7 |
| 20260507002054 | 25 | 0 | 14.5 | 27.4 | 0.00 | 0.00 | 0.03 | 80 | 998.5 |
| 20260507001047 | 24 | 315 | 11.3 | 24.1 | 0.00 | 0.00 | 0.03 | 82 | 998.3 |
| 20260507000041 | 23 | 0 | 6.4 | 17.7 | 0.00 | 0.00 | 0.03 | 83 | 998.3 |
| 20260506235035 | 23 | 0 | 6.4 | 17.7 | 0.00 | 0.00 | 0.03 | 83 | 998.5 |
| 20260506234035 | 23 | 0 | 8.0 | 16.1 | 0.00 | 0.00 | 0.03 | 84 | 999.1 |
| 20260506233028 | 22 | 0 | 4.8 | 17.7 | 0.00 | 0.00 | 0.03 | 83 | 998.3 |
| 20260506232022 | 22 | 0 | 6.4 | 14.5 | 0.00 | 0.00 | 0.03 | 85 | 997.9 |
| 20260506231011 | 22 | 180 | 0.0 | 1.6 | 0.00 | 0.00 | 0.03 | 85 | 998.2 |
| 20260506230006 | 22 | 180 | 0.0 | 3.2 | 0.00 | 0.00 | 0.03 | 85 | 998.6 |
| 20260506224958 | 22 | 23 | 0.0 | 0.0 | 0.00 | 0.00 | 0.03 | 86 | 999.2 |
| 20260506224003 | 21 | 0 | 0.0 | 0.0 | 0.00 | 0.00 | 0.03 | 86 | 999.6 |
| 20260506222947 | 21 | 315 | 0.0 | 1.6 | 0.00 | 0.00 | 0.03 | 86 | 999.5 |
| 20260506221939 | 21 | 180 | 0.0 | 1.6 | 0.00 | 0.00 | 0.03 | 86 | 999.7 |
| 20260506220934 | 22 | 23 | 0.0 | 0.0 | 0.00 | 0.00 | 0.03 | 85 | 999.8 |
| 20260506215927 | 22 | 0 | 0.0 | 0.0 | 0.00 | 0.00 | 0.03 | 84 | 1000.1 |
| 20260506214921 | 22 | 23 | 0.0 | 1.6 | 0.00 | 0.00 | 0.03 | 84 | 1000.5 |
| 20260506213914 | 22 | 180 | 0.0 | 0.0 | 0.00 | 0.00 | 0.03 | 84 | 1000.8 |
| 20260506212908 | 22 | 23 | 0.0 | 0.0 | 0.00 | 0.00 | 0.03 | 83 | 1001.1 |
| 20260506211902 | 22 | 23 | 0.0 | 0.0 | 0.00 | 0.00 | 0.03 | 82 | 1001.2 |
| 20260506210856 | 22 | 0 | 0.0 | 0.0 | 0.00 | 0.00 | 0.03 | 82 | 1001.2 |
| 20260506205849 | 22 | 23 | 0.0 | 0.0 | 0.00 | 0.00 | 0.03 | 82 | 1001.2 |
| 20260506204843 | 22 | 23 | 0.0 | 0.0 | 0.00 | 0.00 | 0.03 | 81 | 1001.3 |
| 20260506203837 | 22 | 180 | 0.0 | 0.0 | 0.00 | 0.00 | 0.03 | 80 | 1001.3 |